EW5448 Weather Reports


Display with metric or nautical units.
time (UTC)temp
F
wind
direction
speed
MPH
gust
MPH
rain 1hr
in
rain 24hr
in
rain mn
in
humidity
%
barometer
mb
20260904221533 102 229 7.0 24.0 0.00 0.00 0.00 11 992.4
20260904220026 102 200 10.0 20.0 0.00 0.00 0.00 9 992.6
20260904214526 102 218 13.0 20.0 0.00 0.00 0.00 9 992.7
20260904213030 101 153 12.0 21.0 0.00 0.00 0.00 9 993.0
20260904211524 102 211 9.0 22.0 0.00 0.00 0.00 10 993.2
20260904210026 102 240 14.0 23.0 0.00 0.00 0.00 9 993.2
20260904204521 99 151 10.0 19.0 0.00 0.00 0.00 17 993.1
20260904203031 99 235 6.0 18.0 0.00 0.00 0.00 19 993.3
20260904201520 99 196 10.0 19.0 0.00 0.00 0.00 18 993.8
20260904200019 99 164 9.0 16.0 0.00 0.00 0.00 21 993.9
20260904194517 98 216 9.0 23.0 0.00 0.00 0.00 23 994.1
20260904193018 97 137 10.0 19.0 0.00 0.00 0.00 23 994.2
20260904191518 97 133 7.0 18.0 0.00 0.00 0.00 26 994.3
20260904190015 96 146 10.0 18.0 0.00 0.00 0.00 27 994.6
20260904184508 97 193 10.0 16.0 0.00 0.00 0.00 21 994.9
20260904183006 95 142 8.0 19.0 0.00 0.00 0.00 23 995.0
20260904181502 95 126 9.0 15.0 0.00 0.00 0.00 29 995.0
20260904180059 95 232 5.0 13.0 0.00 0.00 0.00 26 995.1
20260904174555 95 106 7.0 16.0 0.00 0.00 0.00 23 995.2
20260904173056 94 143 7.0 21.0 0.00 0.00 0.00 24 995.2
20260904171559 93 158 11.0 18.0 0.00 0.00 0.00 27 995.1
20260904170052 93 147 9.0 19.0 0.00 0.00 0.00 28 995.0
20260904164544 91 221 3.0 8.0 0.00 0.00 0.00 27 995.1
20260904163042 89 248 5.0 10.0 0.00 0.00 0.00 26 995.1
20260904161537 88 221 5.0 12.0 0.00 0.00 0.00 25 995.0
20260904160046 88 207 6.0 9.0 0.00 0.00 0.00 25 994.9
20260904154535 86 157 5.0 9.0 0.00 0.00 0.00 23 994.9
20260904153028 85 259 3.0 7.0 0.00 0.00 0.00 23 994.9
20260904151528 82 232 0.0 4.0 0.00 0.00 0.00 19 994.8
20260904150039 81 252 0.0 2.0 0.00 0.00 0.00 20 994.7
20260904144524 80 29 0.0 0.0 0.00 0.00 0.00 21 994.7
20260904143023 79 29 0.0 0.0 0.00 0.00 0.00 23 994.5
20260904141527 78 29 0.0 1.0 0.00 0.00 0.00 23 994.3
20260904140026 76 331 0.0 0.0 0.00 0.00 0.00 23 993.9
20260904134516 74 298 0.0 0.0 0.00 0.00 0.00 24 993.8
20260904133014 73 298 0.0 1.0 0.00 0.00 0.00 24 993.7
20260904131509 75 119 0.0 1.0 0.00 0.00 0.00 22 993.2
20260904130024 75 111 0.0 1.0 0.00 0.00 0.00 21 993.0
20260904124508 75 111 0.0 1.0 0.00 0.00 0.00 21 993.0
20260904123006 75 111 0.0 1.0 0.00 0.00 0.00 21 992.8
20260904121505 75 111 0.0 1.0 0.00 0.00 0.00 23 992.8
20260904120005 75 198 0.0 0.0 0.00 0.00 0.00 22 992.7
20260904114503 75 204 0.0 0.0 0.00 0.00 0.00 23 992.8
20260904113003 75 205 0.0 0.0 0.00 0.00 0.00 23 992.6
20260904111601 75 205 0.0 1.0 0.00 0.00 0.00 22 992.5
20260904110059 76 199 0.0 1.0 0.00 0.00 0.00 22 992.4
20260904104600 76 142 0.0 1.0 0.00 0.00 0.00 20 992.3
20260904103055 77 148 0.0 1.0 0.00 0.00 0.00 20 992.1
20260904101554 76 101 0.0 2.0 0.00 0.00 0.00 20 992.0
20260904100104 76 108 0.0 2.0 0.00 0.00 0.00 21 992.0
20260904094552 76 251 0.0 1.0 0.00 0.00 0.00 21 991.9
20260904093054 76 263 0.0 1.0 0.00 0.00 0.00 19 991.9
20260904091549 76 263 0.0 0.0 0.00 0.00 0.00 19 991.8
20260904090046 78 263 0.0 1.0 0.00 0.00 0.00 18 991.9
20260904084543 79 211 0.0 2.0 0.00 0.00 0.00 17 991.9
20260904083042 80 217 0.0 2.0 0.00 0.00 0.00 17 991.9
20260904081538 80 192 0.0 1.0 0.00 0.00 0.00 16 991.9
20260904080035 82 162 0.0 5.0 0.00 0.00 0.00 15 991.9
20260904074536 83 153 0.0 3.0 0.00 0.00 0.00 14 991.8
20260904073029 84 149 2.0 6.0 0.00 0.00 0.00 14 991.9
20260904071527 85 146 4.0 7.0 0.00 0.00 0.00 14 991.9
20260904070025 85 146 5.0 8.0 0.00 0.00 0.00 14 991.9
20260904064524 85 172 3.0 7.0 0.00 0.00 0.00 14 991.9
20260904063024 87 176 4.0 8.0 0.00 0.00 0.00 14 991.7
20260904061526 88 146 6.0 9.0 0.00 0.00 0.00 14 991.6
20260904060023 88 138 5.0 10.0 0.00 0.00 0.00 14 991.5
20260904054523 88 130 5.0 9.0 0.00 0.00 0.00 14 991.3
20260904053026 87 146 5.0 9.0 0.00 0.00 0.00 14 991.4
20260904051548 87 147 3.0 8.0 0.00 0.00 0.00 13 991.4
20260904050021 87 149 4.0 8.0 0.00 0.00 0.00 14 991.5
20260904044524 85 115 2.0 5.0 0.00 0.00 0.00 16 991.4
20260904043020 86 128 0.0 2.0 0.00 0.00 0.00 15 991.4
20260904041522 87 154 0.0 4.0 0.00 0.00 0.00 14 991.2
20260904040120 89 161 1.0 5.0 0.00 0.00 0.00 13 991.1
20260904034518 89 137 1.0 6.0 0.00 0.00 0.00 12 990.9
20260904033018 89 130 3.0 6.0 0.00 0.00 0.00 13 990.7
20260904031517 90 150 1.0 5.0 0.00 0.00 0.00 13 990.6
20260904030017 90 127 1.0 3.0 0.00 0.00 0.00 13 990.4
20260904024517 91 138 1.0 5.0 0.00 0.00 0.00 11 990.3
20260904023017 92 149 2.0 5.0 0.00 0.00 0.00 11 990.3
20260904021517 94 148 3.0 8.0 0.00 0.00 0.00 10 990.2
20260904020015 96 206 4.0 9.0 0.00 0.00 0.00 9 990.2
20260904014514 98 190 4.0 9.0 0.00 0.00 0.00 9 990.3
20260904013015 100 154 5.0 11.0 0.00 0.00 0.00 9 990.3
20260904011516 100 143 6.0 11.0 0.00 0.00 0.00 9 990.3
20260904010028 101 217 7.0 13.0 0.00 0.00 0.00 8 990.5
20260904004513 100 142 7.0 15.0 0.00 0.00 0.00 10 990.4
20260904003013 101 122 8.0 18.0 0.00 0.00 0.00 11 990.5
20260904001508 102 150 8.0 19.0 0.00 0.00 0.00 9 990.6
20260904000008 101 211 7.0 16.0 0.00 0.00 0.00 10 990.7
20260903234504 100 158 8.0 16.0 0.00 0.00 0.00 13 990.8
20260903233002 100 142 9.0 18.0 0.00 0.00 0.00 14 991.1
20260903231602 100 168 9.0 16.0 0.00 0.00 0.00 14 991.3
20260903230058 101 250 5.0 15.0 0.00 0.00 0.00 13 991.4
20260903224556 101 140 4.0 18.0 0.00 0.00 0.00 13 991.7
20260903223054 99 180 8.0 19.0 0.00 0.00 0.00 14 991.9